[[{"header":{"parameterUnit":"m.s-1","parameterCategory":2,"la1":30.2991,"la2":30.254,"lo1":-89.0895,"lo2":-89.0444,"dy":0.0017,"dx":0.0017,"nx":28,"ny":28,"refTime":"2025-02-04T09:00:00:Z","depth":"0","parameterNumber":2,"parameterNumberName":"U-component_of_CURRENTS"},"data":[0,0,0,0,0,0,0,0,0,0,0,0,0,0,0,0,0,0,0,0,0,0,0,0,0,0,0,0,0,0,0,0,0,0,0,0,0,0,0,0,0,0,0,0,0,0,0,0,0,0,0,0,0,0,0,0,0,0,0.2208,0.2208,0,0.2276,0.2277,0.2277,0.2302,0.2302,0.2302,0.2302,0.2319,0.2319,0.232,0,0,0,0,0,0,0,0,0,0,0,0,0,0.2144,0.2144,0.2208,0.2209,0.2209,0.2276,0.2277,0.2278,0.2302,0.2302,0.2302,0.2302,0.2318,0.2319,0.232,0,0,0,0,0,0,0,0,0,0,0,0,0,0.2187,0.2145,0.2207,0.223,0.2233,0.2276,0.2277,0.2278,0.2302,0.2302,0.2302,0.2301,0.2318,0.2319,0.232,0.2331,0,0,0.2323,0.2323,0,0,0,0,0,0,0,0,0.2184,0.2189,0.2226,0.2229,0.2232,0.2281,0.2261,0.2293,0.2302,0.2275,0.2302,0.2301,0.2302,0.2304,0.2317,0.2332,0.2332,0.2323,0.2323,0.2324,0.2324,0,0,0,0,0,0,0,0.2181,0.2186,0.2234,0.2227,0.2231,0.2253,0.2258,0.2267,0.2288,0.2278,0.228,0.2288,0.2303,0.2316,0.2318,0.2333,0.2323,0.2324,0.2324,0.2325,0.2478,0.2481,0,0,0,0,0,0,0.2172,0.2183,0.2232,0.2236,0.2208,0.2254,0.226,0.2265,0.2289,0.2293,0.2289,0.2289,0.2315,0.2317,0.2318,0.24,0.2324,0.2325,0.2325,0.2475,0.2479,0.2483,0,0,0,0,0,0,0.217,0.2176,0.2229,0.2212,0.222,0.2255,0.2261,0.2266,0.2283,0.2298,0.2301,0.23,0.2315,0.2317,0.2354,0.2398,0.2325,0.2326,0.247,0.2476,0.2481,0.2521,0,0,0,0,0,0,0.2168,0.2175,0.2175,0.2211,0.2221,0.2262,0.2261,0.2268,0.2289,0.2291,0.2308,0.231,0.2315,0.2353,0.2355,0.2398,0.2327,0.2466,0.2473,0.2479,0.2515,0.2527,0.2537,0,0,0,0,0,0.2166,0.2171,0.2174,0.2181,0.222,0.2263,0.2271,0.2293,0.229,0.2306,0.2329,0.2309,0.2397,0.2355,0.2357,0.2402,0.2463,0.2471,0.2479,0.251,0.2524,0.2536,0,0,0,0,0,0,0.2147,0.2176,0.218,0.2194,0.2228,0.2268,0.2283,0.2295,0.2326,0.2327,0.2334,0.2339,0.2398,0.24,0.2353,0.2475,0.2435,0.2444,0.2459,0.2472,0.2483,0.2572,0.2327,0,0,0,0,0,0.2141,0.2152,0.2187,0.2201,0.2215,0.2248,0.2266,0.2284,0.2316,0.2329,0.2346,0.2381,0.2434,0.2448,0.2487,0.2529,0.2595,0.2572,0.2582,0.2591,0.2671,0.2817,0.2848,0.2509,0.2509,0.2509,0,0,0.2142,0.2156,0.2165,0.2197,0.2223,0.2273,0.2258,0.2292,0.2346,0.2325,0.2392,0.2412,0.2457,0.2525,0.2552,0.2526,0.271,0.2601,0.2608,0.2685,0.2829,0.2862,0.2891,0.2514,0.2513,0.2512,0,0,0.2176,0.2159,0.2197,0.2224,0.2264,0.2284,0.2294,0.2338,0.2365,0.2417,0.2446,0.2518,0.254,0.2626,0.2662,0.2763,0.2766,0.2743,0.286,0.2997,0.3027,0.3054,0.3118,0.3151,0.2743,0.2743,0.2743,0,0.2187,0.2235,0.2216,0.2268,0.2305,0.2293,0.2363,0.2388,0.2442,0.2489,0.2445,0.2596,0.2619,0.2771,0.282,0.2793,0.2839,0.2788,0.3012,0.3041,0.3068,0.3128,0.3163,0.2746,0.2745,0.2745,0.2745,0,0.2271,0.2305,0.2328,0.2389,0.2414,0.2466,0.2497,0.2529,0.2536,0.2578,0.2699,0.2747,0.2848,0.286,0.2872,0.308,0.3035,0.3005,0.2972,0.3105,0.3158,0.3194,0.275,0.2749,0.2748,0.2747,0,0,0.2365,0.2386,0.2408,0.2441,0.2488,0.252,0.2592,0.268,0.2739,0.2786,0.2902,0.3026,0.3043,0.3098,0.3117,0.3255,0.3456,0.3219,0.3225,0.3273,0.3715,0.3621,0.365,0.3445,0.3453,0.3459,0.365,0,0.247,0.2556,0.2554,0.2652,0.2703,0.2701,0.2765,0.2824,0.2857,0.2946,0.3039,0.3135,0.3127,0.317,0.3316,0.3425,0.3566,0.3406,0.3594,0.36,0.3493,0.3696,0.3574,0.3732,0.3686,0.3692,0.3696,0,0.2612,0.2639,0.2733,0.2773,0.2798,0.2838,0.2926,0.2982,0.3085,0.3112,0.3229,0.3265,0.3482,0.3432,0.3735,0.3619,0.3714,0.3789,0.3796,0.3747,0.358,0.3609,0.38,0.3702,0.3752,0.3748,0.3744,0,0.2714,0.2789,0.2851,0.2872,0.2905,0.2945,0.2968,0.3044,0.3094,0.3227,0.3265,0.3475,0.3561,0.376,0.3887,0.3832,0.419,0.4107,0.412,0.4108,0.4075,0.4048,0.4205,0.4385,0.4385,0.4384,0.4384,0,0.2852,0.2912,0.2888,0.2924,0.2994,0.2996,0.3079,0.3123,0.3199,0.3269,0.3354,0.3446,0.3658,0.3831,0.3966,0.4154,0.4248,0.4232,0.4205,0.4073,0.4046,0.4011,0.3947,0.4391,0.439,0.4388,0.4387,0,0.2962,0.2958,0.3016,0.3031,0.3038,0.308,0.3104,0.3148,0.3209,0.3304,0.3349,0.3484,0.3687,0.3868,0.4169,0.4221,0.4318,0.4461,0.4253,0.42,0.4085,0.4026,0.4072,0.3949,0.4532,0.4532,0.4531,0,0.3017,0.3053,0.307,0.3075,0.3074,0.3112,0.3123,0.3165,0.319,0.3315,0.3356,0.3552,0.3666,0.4017,0.4193,0.4423,0.4305,0.4407,0.4324,0.4152,0.4068,0.3877,0.3755,0.4266,0.4263,0.4261,0.426,0,0.3099,0.3094,0.311,0.3114,0.3118,0.3129,0.3137,0.3158,0.3201,0.3268,0.335,0.3458,0.3737,0.3907,0.4167,0.4289,0.4186,0.4369,0.4298,0.4011,0.372,0.3557,0.3998,0.4242,0.4244,0.4245,0.4246,0.4247,0.3126,0.3138,0.3124,0.3125,0.3128,0.3101,0.308,0.309,0.3121,0.3165,0.33,0.3422,0.3664,0.4003,0.4085,0.4124,0.4074,0.4074,0.4055,0.3905,0.3695,0.4064,0.4194,0.4195,0.4196,0.4197,0.4198,0,0.3113,0.3108,0.312,0.3089,0.3055,0.3067,0.3043,0.2993,0.2983,0.3108,0.3175,0.3401,0.3582,0.3767,0.3915,0.3845,0.3688,0.3765,0.3512,0.3436,0.3898,0.3792,0.3711,0.3711,0.3711,0.3711,0.3711,0.3711,0.3101,0.308,0.3071,0.2996,0.297,0.2879,0.2841,0.2804,0.2856,0.291,0.3019,0.3146,0.3389,0.3662,0.3668,0.3603,0.334,0.3234,0.3192,0.3558,0.3584,0.361,0.3499,0.3357,0.3357,0.2597,0.2592,0.2588]},{"header":{"parameterUnit":"m.s-1","parameterCategory":2,"la1":30.2991,"la2":30.254,"lo1":-89.0895,"lo2":-89.0444,"dy":0.0017,"dx":0.0017,"nx":28,"ny":28,"refTime":"2025-02-04T09:00:00:Z","depth":"0","parameterNumber":3,"parameterNumberName":"V-component_of_CURRENTS"},"data":[0,0,0,0,0,0,0,0,0,0,0,0,0,0,0,0,0,0,0,0,0,0,0,0,0,0,0,0,0,0,0,0,0,0,0,0,0,0,0,0,0,0,0,0,0,0,0,0,0,0,0,0,0,0,0,0,0,0,0.065,0.0649,0,0.0539,0.0537,0.0536,0.0497,0.0497,0.0498,0.0498,0.0391,0.0388,0.0385,0,0,0,0,0,0,0,0,0,0,0,0,0,0.0797,0.0794,0.065,0.0649,0.0647,0.0539,0.0537,0.0536,0.0497,0.0497,0.0498,0.0498,0.0392,0.0388,0.0384,0,0,0,0,0,0,0,0,0,0,0,0,0,0.0713,0.0793,0.065,0.0615,0.0611,0.0539,0.0537,0.0535,0.0497,0.0497,0.0498,0.0499,0.0393,0.0389,0.0384,0.0339,0,0,0.0369,0.0366,0,0,0,0,0,0,0,0,0.0718,0.0708,0.0622,0.0618,0.0613,0.0533,0.055,0.047,0.0496,0.0539,0.0498,0.0499,0.0439,0.043,0.0407,0.0334,0.0329,0.0368,0.0365,0.0363,0.0362,0,0,0,0,0,0,0,0.0724,0.0712,0.0605,0.062,0.0615,0.0594,0.0584,0.0534,0.0486,0.0535,0.0533,0.0521,0.0436,0.0411,0.0404,0.0328,0.0368,0.0364,0.0361,0.0359,0.0286,0.0287,0,0,0,0,0,0,0.074,0.0718,0.0609,0.0602,0.0669,0.0591,0.0579,0.0557,0.0486,0.0476,0.0521,0.052,0.0419,0.041,0.04,0.042,0.0363,0.0358,0.0356,0.0285,0.0287,0.0288,0,0,0,0,0,0,0.0743,0.073,0.0613,0.0659,0.0643,0.0588,0.0564,0.0555,0.0532,0.0475,0.0465,0.0509,0.042,0.0407,0.0372,0.0413,0.0356,0.0352,0.0284,0.0286,0.0287,0.041,0,0,0,0,0,0,0.0747,0.0732,0.0719,0.0659,0.0641,0.0577,0.0563,0.0552,0.0525,0.0522,0.0461,0.0452,0.0419,0.038,0.0367,0.0405,0.0348,0.0283,0.0285,0.0287,0.0405,0.0416,0.0425,0,0,0,0,0,0.0753,0.0732,0.0719,0.0705,0.0625,0.0577,0.0565,0.0529,0.0524,0.0512,0.0482,0.0454,0.0384,0.0376,0.0361,0.0399,0.0282,0.0284,0.0287,0.04,0.0414,0.0425,0,0,0,0,0,0,0.0782,0.0724,0.0709,0.0669,0.0631,0.0571,0.0555,0.0531,0.0494,0.0498,0.045,0.0438,0.0433,0.0386,0.0379,0.0384,0.0335,0.0334,0.0427,0.0438,0.0448,0.0526,0.0344,0,0,0,0,0,0.0784,0.076,0.0703,0.0675,0.0657,0.0608,0.0583,0.0561,0.0522,0.0506,0.047,0.044,0.0428,0.041,0.0382,0.0363,0.0366,0.0382,0.0392,0.0401,0.0454,0.051,0.0531,0.0295,0.0295,0.0295,0,0,0.0793,0.0755,0.0744,0.0681,0.065,0.0641,0.0595,0.0564,0.0575,0.05,0.0502,0.0469,0.0431,0.0432,0.0426,0.0398,0.0456,0.0404,0.0413,0.0461,0.0515,0.0538,0.0559,0.0297,0.0297,0.0296,0,0,0.0813,0.0762,0.0761,0.0731,0.0686,0.0658,0.0654,0.0601,0.0596,0.0578,0.0556,0.0561,0.0493,0.0511,0.0504,0.0549,0.0513,0.0518,0.0628,0.068,0.0702,0.0721,0.0705,0.0722,0.0519,0.0519,0.052,0,0.0834,0.0816,0.0753,0.0747,0.0742,0.0676,0.0692,0.067,0.062,0.0645,0.0596,0.0601,0.0555,0.062,0.0637,0.0582,0.0575,0.0585,0.0699,0.0718,0.0736,0.0715,0.0732,0.0526,0.0525,0.0524,0.0524,0,0.0861,0.0848,0.0843,0.0826,0.0808,0.0802,0.0772,0.0771,0.0753,0.0749,0.0794,0.0748,0.0766,0.0743,0.0699,0.0805,0.0744,0.0712,0.068,0.0768,0.0738,0.0754,0.0535,0.0532,0.053,0.0529,0,0,0.0922,0.0877,0.0881,0.0891,0.0854,0.0844,0.0877,0.0901,0.0955,0.0921,0.1009,0.0993,0.0984,0.098,0.0935,0.0974,0.1056,0.0899,0.0898,0.0903,0.1128,0.1038,0.1044,0.1042,0.1047,0.105,0.104,0,0.0978,0.0988,0.0959,0.0994,0.1,0.0974,0.1015,0.1031,0.104,0.1099,0.1106,0.1146,0.1067,0.1081,0.112,0.1083,0.1111,0.106,0.1026,0.1025,0.0953,0.1067,0.0993,0.0976,0.1055,0.1057,0.1059,0,0.1029,0.1029,0.1064,0.1088,0.1095,0.1111,0.1184,0.1212,0.128,0.1297,0.136,0.1346,0.1415,0.1321,0.1354,0.1319,0.1252,0.1209,0.1206,0.111,0.0968,0.0908,0.1001,0.0752,0.1083,0.1081,0.1079,0,0.1097,0.1113,0.1147,0.1146,0.1157,0.1197,0.1222,0.1281,0.1333,0.1433,0.1485,0.1552,0.1578,0.1562,0.1458,0.1417,0.147,0.1391,0.1248,0.1236,0.1167,0.1143,0.1047,0.144,0.144,0.144,0.144,0,0.1159,0.1187,0.1177,0.1188,0.1257,0.1255,0.135,0.139,0.1478,0.157,0.1592,0.1677,0.1645,0.1648,0.1548,0.1455,0.1539,0.1317,0.1265,0.1196,0.1176,0.0947,0.082,0.1439,0.1439,0.1439,0.1439,0,0.1202,0.1199,0.123,0.1257,0.1275,0.1318,0.1391,0.1462,0.1543,0.167,0.171,0.1788,0.1805,0.1733,0.1692,0.1551,0.1328,0.1406,0.1293,0.123,0.0849,0.0732,0.0647,0.0529,0.1267,0.1265,0.1263,0,0.1212,0.1228,0.126,0.1281,0.1287,0.1349,0.1399,0.1482,0.1562,0.1734,0.1805,0.1873,0.1943,0.1839,0.1635,0.1472,0.127,0.1235,0.1164,0.0865,0.0697,0.0627,0.0529,0.1086,0.1084,0.1081,0.108,0,0.1222,0.1229,0.1244,0.1293,0.1336,0.1407,0.1489,0.1566,0.1692,0.1811,0.1973,0.2056,0.197,0.182,0.1572,0.141,0.103,0.1179,0.0937,0.0631,0.0491,0.0337,0.0995,0.1059,0.1061,0.1063,0.1064,0.1065,0.121,0.1224,0.1244,0.1296,0.1357,0.1462,0.1543,0.1651,0.1801,0.2006,0.2077,0.2242,0.197,0.1656,0.1377,0.0795,0.0873,0.0613,0.0515,0.0488,0.0333,0.0917,0.088,0.0881,0.0882,0.0883,0.0883,0,0.1184,0.1208,0.1249,0.1322,0.1404,0.1447,0.16,0.1702,0.1881,0.209,0.2242,0.2249,0.1814,0.1384,0.0656,0.0228,0.0071,-0.0013,-0.0132,-0.0185,0.0389,0.0335,0.0099,0.0099,0.0099,0.01,0.01,0.01,0.1168,0.1191,0.1225,0.1343,0.1414,0.155,0.165,0.1807,0.1985,0.2249,0.2413,0.2543,0.2203,0.0827,-0.0162,-0.0384,-0.0695,-0.0749,-0.0866,-0.0519,-0.0469,-0.0421,-0.0501,-0.0908,-0.091,-0.1416,-0.1421,-0.1426]}],[{"header":{"parameterUnit":"m.s-1","parameterCategory":2,"la1":30.2991,"la2":30.254,"lo1":-89.0895,"lo2":-89.0444,"dy":0.0017,"dx":0.0017,"nx":28,"ny":28,"refTime":"2025-02-04T09:00:00:Z","depth":"2","parameterNumber":2,"parameterNumberName":"U-component_of_CURRENTS"},"data":[0,0,0,0,0,0,0,0,0,0,0,0,0,0,0,0,0,0,0,0,0,0,0,0,0,0,0,0,0,0,0,0,0,0,0,0,0,0,0,0,0,0,0,0,0,0,0,0,0,0,0,0,0,0,0,0,0,0,0.121,0.1211,0,0.1204,0.1204,0.1204,0.1182,0.1181,0.1181,0.1181,0.1129,0.1128,0.1127,0,0,0,0,0,0,0,0,0,0,0,0,0,0.1174,0.1175,0.121,0.1211,0.1211,0.1204,0.1204,0.1204,0.1182,0.1181,0.1181,0.1181,0.1129,0.1128,0.1127,0,0,0,0,0,0,0,0,0,0,0,0,0,0.1179,0.1175,0.121,0.1201,0.12,0.1204,0.1204,0.1204,0.1182,0.1181,0.1181,0.1181,0.113,0.1128,0.1127,0.1125,0,0,0.1122,0.1121,0,0,0,0,0,0,0,0,0.1179,0.118,0.1202,0.1201,0.12,0.1195,0.1172,0.1176,0.1182,0.1186,0.1181,0.118,0.1149,0.1145,0.1143,0.1123,0.1121,0.1121,0.112,0.112,0.1119,0,0,0,0,0,0,0,0.1179,0.118,0.1206,0.1202,0.1201,0.1187,0.1187,0.1173,0.1168,0.1186,0.1185,0.1188,0.1148,0.1145,0.1141,0.112,0.1121,0.112,0.1119,0.1118,0.1165,0.1167,0,0,0,0,0,0,0.1186,0.118,0.1206,0.1206,0.1191,0.1188,0.1188,0.1196,0.1169,0.1165,0.1188,0.1187,0.1148,0.1143,0.1139,0.1196,0.112,0.1118,0.1117,0.1163,0.1166,0.1168,0,0,0,0,0,0,0.1185,0.1189,0.1206,0.1194,0.1196,0.1189,0.1198,0.1196,0.1194,0.1171,0.1166,0.1189,0.1147,0.1142,0.1146,0.1191,0.1117,0.1116,0.116,0.1164,0.1167,0.1271,0,0,0,0,0,0,0.1185,0.1189,0.1192,0.1195,0.1197,0.1215,0.1198,0.1196,0.1198,0.1196,0.117,0.1165,0.1146,0.1148,0.1144,0.1188,0.1115,0.1157,0.1162,0.1166,0.1264,0.1277,0.1288,0,0,0,0,0,0.1183,0.1192,0.1192,0.1195,0.1203,0.1216,0.1215,0.1207,0.1198,0.1203,0.1196,0.1166,0.1172,0.1148,0.1143,0.1187,0.1155,0.1161,0.1165,0.1259,0.1275,0.1288,0,0,0,0,0,0,0.1173,0.1191,0.1191,0.1203,0.1212,0.1213,0.1215,0.1212,0.1209,0.1206,0.1182,0.1177,0.1201,0.1179,0.1153,0.1216,0.1164,0.1168,0.1237,0.1251,0.1263,0.1284,0.1113,0,0,0,0,0,0.1175,0.1186,0.1201,0.1208,0.1217,0.1217,0.1219,0.1218,0.1219,0.1217,0.1206,0.1204,0.1219,0.1221,0.1218,0.1242,0.1253,0.1272,0.1284,0.1294,0.131,0.1389,0.141,0.1184,0.1184,0.1184,0,0,0.1169,0.1183,0.1186,0.1207,0.1212,0.1236,0.1217,0.1227,0.125,0.1211,0.1235,0.1236,0.1233,0.127,0.1279,0.1256,0.1362,0.1301,0.1309,0.1319,0.1397,0.1419,0.1438,0.1188,0.1187,0.1187,0,0,0.1175,0.1183,0.1199,0.1216,0.1235,0.1244,0.1251,0.1263,0.127,0.1294,0.1288,0.1324,0.1318,0.1351,0.1361,0.1436,0.1418,0.1431,0.1511,0.1588,0.1608,0.1625,0.1657,0.1676,0.1442,0.1442,0.1442,0,0.1166,0.1196,0.1203,0.1232,0.1252,0.1253,0.1284,0.1297,0.1309,0.1336,0.1311,0.138,0.1368,0.1454,0.1484,0.1465,0.1488,0.1455,0.1605,0.1623,0.1639,0.1667,0.1687,0.1447,0.1447,0.1446,0.1446,0,0.1194,0.1219,0.1232,0.1274,0.1296,0.132,0.135,0.1376,0.1387,0.141,0.1484,0.1495,0.1543,0.1554,0.1537,0.1657,0.1628,0.1608,0.1571,0.1668,0.1691,0.171,0.1456,0.1454,0.1452,0.145,0,0,0.1177,0.1239,0.1244,0.1275,0.1323,0.1345,0.1401,0.146,0.1512,0.1542,0.1624,0.1674,0.1693,0.1709,0.1715,0.1782,0.1904,0.1749,0.175,0.1782,0.2054,0.196,0.197,0.1917,0.1921,0.1924,0.2021,0,0.1198,0.1255,0.1286,0.1346,0.1382,0.142,0.1474,0.1529,0.1576,0.1653,0.1709,0.1777,0.1749,0.1789,0.186,0.1896,0.1962,0.1878,0.1953,0.1955,0.1862,0.1992,0.1852,0.1921,0.2039,0.2042,0.2044,0,0.1222,0.126,0.1318,0.1397,0.1418,0.1457,0.1559,0.1608,0.1718,0.1763,0.186,0.1892,0.2011,0.1962,0.2103,0.2053,0.2066,0.2085,0.2089,0.1979,0.1897,0.1845,0.195,0.2076,0.2073,0.2071,0.2069,0,0.1212,0.1287,0.1333,0.1359,0.1445,0.1489,0.1541,0.1643,0.1711,0.1846,0.1919,0.2041,0.2121,0.2182,0.2206,0.2176,0.2334,0.2293,0.2221,0.2212,0.2096,0.207,0.2398,0.2398,0.2398,0.2397,0.2397,0,0.1228,0.1267,0.1332,0.136,0.143,0.1491,0.1581,0.166,0.1789,0.1884,0.1977,0.2079,0.2187,0.227,0.2269,0.2306,0.239,0.2267,0.2254,0.2124,0.21,0.2229,0.2208,0.2401,0.24,0.24,0.2399,0,0.121,0.1253,0.1308,0.1393,0.1425,0.1473,0.1596,0.1664,0.1793,0.1929,0.1984,0.2156,0.226,0.2318,0.2423,0.2389,0.242,0.2397,0.2211,0.2174,0.2228,0.2212,0.2362,0.236,0.2358,0.2357,0.2356,0,0.1205,0.1228,0.1312,0.1343,0.1382,0.1459,0.1515,0.1653,0.1738,0.1958,0.2028,0.2186,0.2251,0.2362,0.2361,0.2365,0.2391,0.2221,0.2141,0.2265,0.2237,0.2223,0.2209,0.2027,0.2024,0.2021,0.2018,0,0.1186,0.1209,0.1252,0.1314,0.137,0.1441,0.154,0.1613,0.1778,0.188,0.2026,0.2094,0.2217,0.2186,0.2203,0.2174,0.2211,0.2155,0.2393,0.2038,0.1952,0.1923,0.192,0.199,0.1993,0.1995,0.1997,0.1998,0.1155,0.1175,0.1222,0.1284,0.1347,0.1419,0.1463,0.1567,0.1672,0.181,0.1915,0.1959,0.203,0.1983,0.1936,0.1923,0.2049,0.1973,0.1983,0.1996,0.192,0.1834,0.1834,0.1836,0.1837,0.1839,0.184,0,0.111,0.1146,0.1191,0.1262,0.1308,0.1367,0.1474,0.1479,0.1552,0.1672,0.1733,0.1622,0.1633,0.1698,0.1647,0.1645,0.1625,0.1578,0.1558,0.1588,0.1614,0.1517,0.1325,0.1323,0.1321,0.132,0,0,0.1086,0.111,0.1143,0.1205,0.1259,0.1303,0.1351,0.1361,0.142,0.1391,0.142,0.1544,0.1651,0.146,0.1451,0.1388,0.1466,0.1333,0.1755,0.1762,0.1785,0.1861,0.1747,0,0,0,0,0]},{"header":{"parameterUnit":"m.s-1","parameterCategory":2,"la1":30.2991,"la2":30.254,"lo1":-89.0895,"lo2":-89.0444,"dy":0.0017,"dx":0.0017,"nx":28,"ny":28,"refTime":"2025-02-04T09:00:00:Z","depth":"2","parameterNumber":3,"parameterNumberName":"V-component_of_CURRENTS"},"data":[0,0,0,0,0,0,0,0,0,0,0,0,0,0,0,0,0,0,0,0,0,0,0,0,0,0,0,0,0,0,0,0,0,0,0,0,0,0,0,0,0,0,0,0,0,0,0,0,0,0,0,0,0,0,0,0,0,0,-0.0656,-0.0656,0,-0.0658,-0.0658,-0.0658,-0.0679,-0.0679,-0.0679,-0.068,-0.0625,-0.0623,-0.0622,0,0,0,0,0,0,0,0,0,0,0,0,0,-0.0671,-0.0671,-0.0656,-0.0656,-0.0656,-0.0658,-0.0658,-0.0658,-0.0679,-0.0679,-0.0679,-0.068,-0.0626,-0.0624,-0.0621,0,0,0,0,0,0,0,0,0,0,0,0,0,-0.067,-0.0671,-0.0656,-0.0665,-0.0665,-0.0658,-0.0658,-0.0658,-0.0678,-0.0679,-0.0679,-0.068,-0.0626,-0.0624,-0.0621,-0.0595,0,0,-0.0613,-0.0612,0,0,0,0,0,0,0,0,-0.067,-0.0669,-0.0663,-0.0664,-0.0665,-0.0667,-0.0643,-0.0634,-0.0678,-0.0676,-0.068,-0.068,-0.0632,-0.0629,-0.0632,-0.0592,-0.059,-0.0613,-0.0611,-0.061,-0.0609,0,0,0,0,0,0,0,-0.067,-0.0669,-0.0659,-0.0663,-0.0664,-0.0668,-0.0669,-0.0642,-0.0651,-0.0676,-0.0677,-0.0674,-0.0632,-0.0635,-0.0631,-0.0589,-0.0613,-0.0611,-0.0609,-0.0608,-0.0533,-0.0533,0,0,0,0,0,0,-0.0665,-0.0669,-0.0659,-0.0659,-0.0666,-0.0668,-0.0668,-0.0667,-0.0653,-0.0651,-0.0673,-0.0675,-0.0639,-0.0634,-0.0629,-0.0578,-0.061,-0.0608,-0.0606,-0.0533,-0.0533,-0.0533,0,0,0,0,0,0,-0.0665,-0.0664,-0.0659,-0.0662,-0.0662,-0.0667,-0.0665,-0.0667,-0.0664,-0.0651,-0.0649,-0.0668,-0.0639,-0.0632,-0.0606,-0.0577,-0.0607,-0.0604,-0.0534,-0.0533,-0.0533,-0.0488,0,0,0,0,0,0,-0.0666,-0.0664,-0.0662,-0.0662,-0.0661,-0.0644,-0.0665,-0.0666,-0.0661,-0.0663,-0.0646,-0.0642,-0.0639,-0.061,-0.0603,-0.0574,-0.0602,-0.0534,-0.0534,-0.0533,-0.049,-0.0486,-0.0483,0,0,0,0,0,-0.0666,-0.0655,-0.0662,-0.0661,-0.0658,-0.0643,-0.0643,-0.065,-0.066,-0.0651,-0.0649,-0.0642,-0.06,-0.0607,-0.0599,-0.0568,-0.0535,-0.0534,-0.0533,-0.0492,-0.0487,-0.0483,0,0,0,0,0,0,-0.0652,-0.0656,-0.0664,-0.0653,-0.0645,-0.0646,-0.0636,-0.0643,-0.0636,-0.0635,-0.0632,-0.0627,-0.0597,-0.0591,-0.0599,-0.0549,-0.0568,-0.0565,-0.0539,-0.0534,-0.0531,-0.0513,-0.06,0,0,0,0,0,-0.0649,-0.0645,-0.0646,-0.0633,-0.0631,-0.0633,-0.0629,-0.0631,-0.0624,-0.0623,-0.0609,-0.0599,-0.0588,-0.0569,-0.0558,-0.0519,-0.0538,-0.0498,-0.0494,-0.0491,-0.0473,-0.0493,-0.0489,-0.053,-0.053,-0.053,0,0,-0.0635,-0.0639,-0.0634,-0.063,-0.0627,-0.0606,-0.0632,-0.0616,-0.0595,-0.0614,-0.0578,-0.0584,-0.0578,-0.0547,-0.0531,-0.0534,-0.0493,-0.049,-0.0487,-0.0471,-0.0491,-0.0487,-0.0484,-0.0529,-0.0529,-0.0529,0,0,-0.0596,-0.0611,-0.0593,-0.0586,-0.0579,-0.0581,-0.0574,-0.0567,-0.0564,-0.0534,-0.0551,-0.0541,-0.0507,-0.0504,-0.0498,-0.0464,-0.048,-0.0459,-0.041,-0.0429,-0.0426,-0.0423,-0.0458,-0.0459,-0.0448,-0.0448,-0.0447,0,-0.0578,-0.0558,-0.0581,-0.0558,-0.0543,-0.0566,-0.0531,-0.053,-0.0513,-0.0499,-0.0514,-0.0486,-0.0486,-0.0453,-0.0447,-0.0452,-0.0473,-0.0425,-0.0423,-0.0421,-0.0419,-0.0456,-0.0457,-0.0445,-0.0446,-0.0446,-0.0446,0,-0.0527,-0.0507,-0.0492,-0.0476,-0.0466,-0.0438,-0.0441,-0.0427,-0.0429,-0.0425,-0.0398,-0.041,-0.0389,-0.0395,-0.0406,-0.0384,-0.0409,-0.0425,-0.0433,-0.0412,-0.0453,-0.0455,-0.0442,-0.0443,-0.0444,-0.0444,0,0,-0.0485,-0.046,-0.0452,-0.0425,-0.0419,-0.0397,-0.0372,-0.0347,-0.0314,-0.032,-0.0278,-0.0284,-0.0297,-0.0292,-0.0311,-0.0326,-0.0344,-0.0359,-0.0362,-0.0391,-0.0397,-0.0415,-0.042,-0.036,-0.036,-0.0359,-0.0438,0,-0.0431,-0.0371,-0.0376,-0.0308,-0.0275,-0.0288,-0.0255,-0.0241,-0.0235,-0.0203,-0.0232,-0.0201,-0.0256,-0.0237,-0.0265,-0.0315,-0.0344,-0.0322,-0.0416,-0.0418,-0.0433,-0.042,-0.0383,-0.0449,-0.044,-0.0441,-0.0441,0,-0.0378,-0.0343,-0.0273,-0.0216,-0.0202,-0.0168,-0.012,-0.0092,-0.0077,-0.0067,-0.0065,-0.0086,-0.0099,-0.0153,-0.0239,-0.0221,-0.0301,-0.0358,-0.0362,-0.0389,-0.0438,-0.0466,-0.0454,-0.0445,-0.0445,-0.0444,-0.0444,0,-0.0335,-0.0266,-0.0207,-0.0189,-0.0137,-0.0102,-0.0072,-0.0047,0.0003,0.0022,0.0061,0.0018,0.0028,-0.0082,-0.0208,-0.0216,-0.032,-0.0349,-0.0448,-0.0452,-0.0442,-0.0444,-0.0418,-0.0418,-0.0418,-0.0418,-0.0418,0,-0.028,-0.0225,-0.0177,-0.0141,-0.0054,-0.0043,0.0046,0.0068,0.0123,0.0193,0.014,0.018,0.005,-0.0029,-0.0174,-0.0315,-0.03,-0.0432,-0.0464,-0.0428,-0.0428,-0.0436,-0.0437,-0.0421,-0.042,-0.042,-0.0419,0,-0.024,-0.0213,-0.0133,-0.0062,-0.0032,0.0029,0.0131,0.0199,0.0234,0.0324,0.0341,0.032,0.0211,0.0043,-0.0125,-0.0244,-0.0399,-0.0462,-0.0419,-0.0444,-0.053,-0.0528,-0.0565,-0.0566,-0.0567,-0.0567,-0.0568,0,-0.0214,-0.0171,-0.0076,-0.0017,0.0022,0.0112,0.0185,0.0249,0.0334,0.0404,0.0463,0.0398,0.0345,0.0083,-0.014,-0.0394,-0.043,-0.0501,-0.0506,-0.0512,-0.0541,-0.0537,-0.0534,-0.049,-0.049,-0.049,-0.049,0,-0.0156,-0.0126,-0.0061,0.0053,0.014,0.0247,0.0359,0.0445,0.0524,0.058,0.0629,0.0585,0.0352,0.0131,-0.0183,-0.035,-0.0457,-0.0508,-0.0516,-0.0454,-0.0447,-0.0474,-0.0472,-0.049,-0.049,-0.049,-0.049,-0.049,-0.0109,-0.0055,0.003,0.0141,0.0248,0.0388,0.0498,0.0604,0.0723,0.0818,0.0739,0.0676,0.0429,0.0036,-0.022,-0.0461,-0.0476,-0.0549,-0.0547,-0.0545,-0.0517,-0.0511,-0.0563,-0.0563,-0.0563,-0.0564,-0.0564,0,-0.004,0.0022,0.0122,0.0266,0.0398,0.0446,0.0628,0.072,0.0861,0.0885,0.0879,0.0623,0.0374,0.0094,-0.0255,-0.0481,-0.0491,-0.0545,-0.0499,-0.0499,-0.0499,-0.0467,-0.05,-0.05,-0.0501,-0.0501,0,0,0.0005,0.0105,0.0154,0.0374,0.0491,0.0692,0.081,0.092,0.0981,0.0973,0.0934,0.0797,0.0458,0.0222,-0.0095,-0.0279,-0.033,-0.0319,-0.035,-0.0259,-0.0255,-0.0488,-0.0437,0,0,0,0,0]}],[{"header":{"parameterUnit":"m.s-1","parameterCategory":2,"la1":30.2991,"la2":30.254,"lo1":-89.0895,"lo2":-89.0444,"dy":0.0017,"dx":0.0017,"nx":28,"ny":28,"refTime":"2025-02-04T09:00:00:Z","depth":"4","parameterNumber":2,"parameterNumberName":"U-component_of_CURRENTS"},"data":[0,0,0,0,0,0,0,0,0,0,0,0,0,0,0,0,0,0,0,0,0,0,0,0,0,0,0,0,0,0,0,0,0,0,0,0,0,0,0,0,0,0,0,0,0,0,0,0,0,0,0,0,0,0,0,0,0,0,0.0707,0.0708,0,0.0726,0.0726,0.0726,0.0741,0.0741,0.0742,0.0742,0.076,0.076,0.076,0,0,0,0,0,0,0,0,0,0,0,0,0,0.0675,0.0676,0.0707,0.0708,0.0708,0.0726,0.0726,0.0726,0.0741,0.0741,0.0742,0.0742,0.076,0.076,0.076,0,0,0,0,0,0,0,0,0,0,0,0,0,0.069,0.0676,0.0707,0.0718,0.0719,0.0726,0.0726,0.0726,0.0741,0.0741,0.0742,0.0742,0.076,0.076,0.076,0.0757,0,0,0.0762,0.0762,0,0,0,0,0,0,0,0,0.0689,0.0691,0.0716,0.0717,0.0719,0.0732,0.0721,0.0736,0.0741,0.0732,0.0742,0.0742,0.0751,0.0752,0.0754,0.0758,0.0758,0.0762,0.0762,0.0762,0.0762,0,0,0,0,0,0,0,0.0688,0.0691,0.0714,0.0716,0.0718,0.0718,0.0721,0.0724,0.0739,0.0733,0.0734,0.0737,0.0751,0.0753,0.0754,0.0759,0.0762,0.0762,0.0762,0.0763,0.0812,0.0813,0,0,0,0,0,0,0.0688,0.069,0.0714,0.0715,0.0705,0.0719,0.0722,0.0727,0.0739,0.0741,0.0737,0.0738,0.0752,0.0754,0.0755,0.0804,0.0762,0.0763,0.0763,0.0811,0.0812,0.0813,0,0,0,0,0,0,0.0687,0.069,0.0713,0.0703,0.0706,0.0719,0.0725,0.0727,0.0748,0.0742,0.0744,0.0757,0.0753,0.0754,0.0777,0.0802,0.0763,0.0763,0.0809,0.0811,0.0813,0.0867,0,0,0,0,0,0,0.0686,0.0689,0.0701,0.0703,0.0707,0.073,0.0725,0.0727,0.0748,0.075,0.076,0.0761,0.0753,0.0777,0.0778,0.0802,0.0763,0.0808,0.081,0.0812,0.0864,0.087,0.0876,0,0,0,0,0,0.0685,0.0696,0.0702,0.0705,0.072,0.0731,0.0733,0.0743,0.0749,0.0762,0.0772,0.0762,0.079,0.0778,0.0779,0.0804,0.0807,0.081,0.0812,0.0861,0.0869,0.0876,0,0,0,0,0,0,0.0687,0.0698,0.0705,0.072,0.0732,0.0734,0.0749,0.0755,0.0773,0.078,0.0775,0.0776,0.0804,0.0797,0.0784,0.0824,0.0797,0.08,0.0835,0.0842,0.0848,0.0852,0.0764,0,0,0,0,0,0.0693,0.0708,0.0716,0.0731,0.074,0.0749,0.0758,0.0766,0.0777,0.0786,0.0793,0.0802,0.0811,0.0822,0.0825,0.0849,0.084,0.0866,0.0872,0.0877,0.0882,0.089,0.0897,0.0821,0.0821,0.0821,0,0,0.0698,0.0707,0.0716,0.0734,0.0745,0.0759,0.0756,0.0777,0.0794,0.0784,0.0816,0.0822,0.0821,0.0847,0.0859,0.0848,0.0894,0.088,0.0884,0.0886,0.0893,0.09,0.0907,0.0823,0.0822,0.0822,0,0,0.0708,0.0725,0.074,0.0753,0.0775,0.078,0.0792,0.0808,0.0823,0.0851,0.0848,0.0872,0.0888,0.0893,0.0896,0.0937,0.0922,0.0943,0.0982,0.0991,0.0997,0.1002,0.1003,0.1007,0.095,0.095,0.095,0,0.0713,0.0733,0.0746,0.0764,0.078,0.0793,0.0813,0.0826,0.0849,0.0868,0.087,0.0908,0.0908,0.0937,0.0956,0.0951,0.0952,0.0955,0.0998,0.1003,0.1008,0.1007,0.1012,0.0953,0.0953,0.0952,0.0952,0,0.0729,0.0753,0.0765,0.0791,0.0811,0.0832,0.085,0.0873,0.0896,0.0913,0.0957,0.0963,0.0989,0.0994,0.099,0.1028,0.1017,0.1001,0.098,0.1019,0.1015,0.1019,0.0957,0.0956,0.0955,0.0955,0,0,0.0713,0.0766,0.0771,0.0792,0.0831,0.0843,0.0878,0.0911,0.0938,0.0971,0.1013,0.1038,0.1056,0.1061,0.1063,0.1074,0.1109,0.1062,0.1061,0.1062,0.1129,0.1106,0.1108,0.1106,0.1107,0.1108,0.1115,0,0.0723,0.076,0.0788,0.0827,0.0847,0.0878,0.091,0.0945,0.0976,0.1018,0.1045,0.1087,0.1077,0.1105,0.1116,0.1113,0.1122,0.1108,0.1092,0.1091,0.1066,0.1113,0.1111,0.1117,0.1118,0.1119,0.1119,0,0.0723,0.0752,0.0793,0.085,0.0864,0.0892,0.0946,0.0978,0.1036,0.1066,0.1114,0.1141,0.1184,0.1164,0.1181,0.1177,0.1162,0.115,0.115,0.1112,0.1076,0.1069,0.1126,0.1125,0.1125,0.1125,0.1124,0,0.0695,0.0753,0.0788,0.0807,0.0871,0.0902,0.0941,0.0998,0.1034,0.1109,0.115,0.1195,0.1233,0.1227,0.123,0.121,0.1238,0.1199,0.1158,0.1155,0.1147,0.1141,0.1201,0.1201,0.1201,0.1201,0.1201,0,0.0683,0.0709,0.0781,0.0799,0.0846,0.0901,0.0955,0.0998,0.107,0.1121,0.1183,0.1225,0.1254,0.128,0.1255,0.1235,0.126,0.1176,0.1162,0.117,0.1167,0.115,0.1144,0.1201,0.1201,0.1201,0.1201,0,0.0637,0.0687,0.0726,0.0804,0.0833,0.0867,0.0959,0.099,0.1074,0.1142,0.118,0.1263,0.1305,0.1321,0.1319,0.127,0.1248,0.1229,0.1254,0.1239,0.1146,0.1142,0.1169,0.1169,0.1168,0.1168,0.1167,0,0.0615,0.0632,0.0716,0.0743,0.0782,0.0844,0.0883,0.0977,0.1019,0.1153,0.1183,0.1274,0.1317,0.1298,0.1312,0.1282,0.1257,0.1234,0.1173,0.1162,0.1146,0.1143,0.1141,0.1167,0.1166,0.1166,0.1166,0,0.0567,0.0603,0.0636,0.0691,0.0739,0.0788,0.0863,0.0892,0.1007,0.1092,0.117,0.1211,0.1261,0.127,0.1278,0.1242,0.1244,0.1227,0.1226,0.1169,0.1159,0.1143,0.1141,0.1164,0.1165,0.1165,0.1165,0,0.0528,0.0537,0.0586,0.0629,0.0683,0.0724,0.0772,0.0842,0.0904,0.1064,0.1085,0.1179,0.1257,0.1251,0.1249,0.1237,0.1194,0.1129,0.1132,0.1135,0.1122,0.1104,0.1093,0,0,0,0,0,0.0487,0.0494,0.0522,0.057,0.062,0.066,0.0753,0.0806,0.0925,0.0959,0.1027,0.1077,0.1118,0.1159,0.1134,0.1207,0.1181,0.1171,0.1103,0.1155,0.1157,0.1146,0,0,0,0,0,0,0.0459,0.0482,0.0496,0.051,0.0534,0.0587,0.0646,0.0729,0.0763,0.0889,0.0914,0.101,0.1054,0.1117,0.111,0.1121,0.1057,0.1229,0.1226,0.1153,0.1155,0.1157,0.1147,0,0,0,0,0]},{"header":{"parameterUnit":"m.s-1","parameterCategory":2,"la1":30.2991,"la2":30.254,"lo1":-89.0895,"lo2":-89.0444,"dy":0.0017,"dx":0.0017,"nx":28,"ny":28,"refTime":"2025-02-04T09:00:00:Z","depth":"4","parameterNumber":3,"parameterNumberName":"V-component_of_CURRENTS"},"data":[0,0,0,0,0,0,0,0,0,0,0,0,0,0,0,0,0,0,0,0,0,0,0,0,0,0,0,0,0,0,0,0,0,0,0,0,0,0,0,0,0,0,0,0,0,0,0,0,0,0,0,0,0,0,0,0,0,0,-0.0138,-0.0139,0,-0.0171,-0.0171,-0.0171,-0.02,-0.02,-0.02,-0.02,-0.024,-0.0241,-0.0242,0,0,0,0,0,0,0,0,0,0,0,0,0,-0.0124,-0.0124,-0.0138,-0.0139,-0.0139,-0.017,-0.0171,-0.0171,-0.02,-0.02,-0.02,-0.02,-0.024,-0.0241,-0.0242,0,0,0,0,0,0,0,0,0,0,0,0,0,-0.0141,-0.0124,-0.0138,-0.0156,-0.0158,-0.017,-0.0171,-0.0172,-0.0199,-0.02,-0.02,-0.0201,-0.024,-0.0241,-0.0242,-0.0241,0,0,-0.0246,-0.0246,0,0,0,0,0,0,0,0,-0.014,-0.0142,-0.0153,-0.0155,-0.0157,-0.0181,-0.0181,-0.0195,-0.0199,-0.0184,-0.02,-0.0201,-0.022,-0.0223,-0.0229,-0.0243,-0.0245,-0.0246,-0.0246,-0.0247,-0.0247,0,0,0,0,0,0,0,-0.0139,-0.0141,-0.0152,-0.0154,-0.0156,-0.0171,-0.0174,-0.0184,-0.02,-0.0186,-0.0188,-0.019,-0.0222,-0.0228,-0.023,-0.0245,-0.0246,-0.0247,-0.0247,-0.0248,-0.029,-0.029,0,0,0,0,0,0,-0.0132,-0.0139,-0.0151,-0.0152,-0.0149,-0.0171,-0.0174,-0.0173,-0.02,-0.0204,-0.019,-0.0191,-0.0226,-0.0229,-0.0232,-0.0245,-0.0247,-0.0248,-0.0249,-0.029,-0.029,-0.029,0,0,0,0,0,0,-0.0132,-0.0133,-0.0149,-0.0146,-0.015,-0.017,-0.017,-0.0174,-0.0184,-0.0203,-0.0208,-0.0197,-0.0226,-0.023,-0.0245,-0.0247,-0.0249,-0.025,-0.0289,-0.029,-0.029,-0.0265,0,0,0,0,0,0,-0.0131,-0.0132,-0.0132,-0.0146,-0.0149,-0.0154,-0.0169,-0.0174,-0.0185,-0.0187,-0.021,-0.0214,-0.0227,-0.0243,-0.0246,-0.0248,-0.0251,-0.0289,-0.0289,-0.029,-0.0265,-0.0264,-0.0264,0,0,0,0,0,-0.013,-0.0125,-0.0131,-0.0133,-0.0147,-0.0153,-0.0156,-0.0173,-0.0185,-0.0185,-0.0205,-0.0214,-0.025,-0.0244,-0.0248,-0.025,-0.0288,-0.0289,-0.029,-0.0265,-0.0264,-0.0264,0,0,0,0,0,0,-0.0121,-0.0127,-0.0135,-0.0133,-0.0142,-0.0158,-0.0161,-0.0173,-0.0189,-0.0194,-0.0215,-0.022,-0.0235,-0.0248,-0.024,-0.0267,-0.0272,-0.0274,-0.0252,-0.0252,-0.0251,-0.0248,-0.0252,0,0,0,0,0,-0.0118,-0.0114,-0.0125,-0.0125,-0.0127,-0.0145,-0.0151,-0.0161,-0.0176,-0.0184,-0.0202,-0.0223,-0.024,-0.0249,-0.0264,-0.0275,-0.0297,-0.0282,-0.0281,-0.028,-0.0282,-0.0322,-0.0325,-0.0293,-0.0293,-0.0293,0,0,-0.0116,-0.0118,-0.0118,-0.0122,-0.0132,-0.0129,-0.015,-0.0156,-0.0156,-0.0185,-0.0195,-0.0218,-0.0243,-0.0256,-0.0265,-0.0268,-0.0299,-0.0282,-0.028,-0.0283,-0.0323,-0.0326,-0.0329,-0.0294,-0.0294,-0.0294,0,0,-0.0106,-0.0111,-0.0104,-0.0106,-0.0114,-0.0121,-0.0122,-0.0137,-0.0147,-0.0158,-0.0183,-0.021,-0.023,-0.0253,-0.0266,-0.0272,-0.0293,-0.0277,-0.0271,-0.0309,-0.0312,-0.0315,-0.0336,-0.0341,-0.0277,-0.0277,-0.0277,0,-0.0104,-0.0095,-0.0104,-0.0095,-0.0095,-0.0115,-0.0107,-0.0116,-0.0136,-0.0146,-0.0157,-0.021,-0.023,-0.0257,-0.0261,-0.027,-0.029,-0.0269,-0.0308,-0.0311,-0.0314,-0.0336,-0.0341,-0.0276,-0.0276,-0.0276,-0.0276,0,-0.0086,-0.008,-0.0075,-0.0069,-0.007,-0.0066,-0.0076,-0.0082,-0.0099,-0.0116,-0.0148,-0.0186,-0.022,-0.0232,-0.0248,-0.0282,-0.0288,-0.03,-0.0307,-0.0316,-0.0338,-0.0344,-0.0275,-0.0275,-0.0275,-0.0276,0,0,-0.0083,-0.0066,-0.0065,-0.0053,-0.0055,-0.005,-0.0049,-0.0058,-0.0062,-0.0096,-0.0116,-0.0159,-0.0193,-0.0211,-0.0243,-0.0279,-0.0318,-0.0298,-0.0301,-0.0314,-0.0394,-0.0366,-0.0371,-0.0339,-0.034,-0.0341,-0.0395,0,-0.0069,-0.0041,-0.004,-0.0018,-0.0004,-0.0015,-0.001,-0.0021,-0.0043,-0.0065,-0.0119,-0.0149,-0.018,-0.0203,-0.0245,-0.0303,-0.0336,-0.0301,-0.0388,-0.039,-0.0361,-0.0378,-0.0345,-0.04,-0.0402,-0.0403,-0.0404,0,-0.0054,-0.0034,-0.0006,0.0017,0.002,0.0029,0.003,0.003,-0.0006,-0.0024,-0.0073,-0.0118,-0.0181,-0.0205,-0.0309,-0.0286,-0.0336,-0.038,-0.0384,-0.0373,-0.0376,-0.0394,-0.0416,-0.0415,-0.0414,-0.0413,-0.0412,0,-0.004,-0.0012,0.0014,0.0022,0.0043,0.0049,0.0054,0.0036,0.004,-0.0007,-0.0018,-0.0102,-0.0144,-0.0227,-0.032,-0.0319,-0.0431,-0.0439,-0.0459,-0.0457,-0.0476,-0.0472,-0.0508,-0.0508,-0.0508,-0.0508,-0.0508,0,-0.0022,-0.0001,0.0025,0.0041,0.0074,0.0072,0.0091,0.0085,0.0067,0.007,-0.0001,-0.0023,-0.0154,-0.0233,-0.0316,-0.0406,-0.0429,-0.0461,-0.0474,-0.0462,-0.0457,-0.048,-0.0476,-0.051,-0.0509,-0.0509,-0.0509,0,-0.0008,0.0006,0.0042,0.0071,0.0084,0.0105,0.0132,0.0144,0.0122,0.0121,0.0107,0.0025,-0.0077,-0.0198,-0.0336,-0.039,-0.0484,-0.0507,-0.0477,-0.0487,-0.0484,-0.0478,-0.0535,-0.0535,-0.0534,-0.0534,-0.0534,0,0.0006,0.0024,0.0069,0.0098,0.0114,0.0147,0.0173,0.0172,0.0187,0.0156,0.0159,0.006,-0.0005,-0.0172,-0.0307,-0.0462,-0.0478,-0.052,-0.0512,-0.0482,-0.0489,-0.0484,-0.0479,-0.0533,-0.0533,-0.0533,-0.0533,0,0.0033,0.0043,0.0077,0.0134,0.0171,0.0216,0.025,0.0266,0.0263,0.0244,0.021,0.0112,0.0001,-0.015,-0.0273,-0.0384,-0.0493,-0.0516,-0.0518,-0.0511,-0.048,-0.0487,-0.0482,-0.0532,-0.0532,-0.0532,-0.0532,0,0.0054,0.008,0.0121,0.0175,0.0225,0.0271,0.0285,0.0306,0.0316,0.0284,0.0269,0.0142,0.0056,-0.0109,-0.0224,-0.0333,-0.0357,-0.0379,-0.0388,-0.0391,-0.0335,-0.0274,-0.0275,0,0,0,0,0,0.0075,0.011,0.0162,0.0221,0.0269,0.0297,0.0336,0.0342,0.0337,0.033,0.0304,0.0205,0.0032,-0.0055,-0.0157,-0.0227,-0.0385,-0.0349,-0.0417,-0.0525,-0.0527,-0.0484,0,0,0,0,0,0,0.0091,0.0138,0.0167,0.0249,0.0292,0.0347,0.0371,0.0368,0.0364,0.034,0.0247,0.0196,0.002,0.0092,-0.0154,-0.0191,-0.0243,-0.0438,-0.044,-0.0525,-0.0526,-0.0527,-0.0483,0,0,0,0,0]}]]